Almeria, Spain

3:14 PM CEST on September 26, 2016 (GMT +0200)
Almeria

Weather History for LEAM - January, 2014

Change the Weather History Date:

Thursday, January 23, 2014

  Actual Average Record
Temperature  
Mean Temperature 58 °F -  
Max Temperature 65 °F 58 °F 70 °F (2016)
Min Temperature 50 °F 46 °F 44 °F (2000)
Degree Days  
Heating Degree Days 8    
Growing Degree Days 8 (Base 50)    
Moisture  
Dew Point 43 °F    
Average Humidity 56    
Maximum Humidity 87    
Minimum Humidity 23    
Precipitation  
Precipitation 0.00 in - - ()
Sea Level Pressure  
Sea Level Pressure 30.16 in    
Wind  
Wind Speed 5 mph ()    
Max Wind Speed 13 mph    
Max Gust Speed -    
Visibility 6.2 miles    
Events      
Averages and records for this station are not official NWS values.
T = Trace of Precipitation, MM = Missing Value Source: Averaged Metar Reports

Daily Weather History Graph

Daily Weather History Graph

Search for Another Location

Airport or City:

Trip Planner

Search our weather history database for the weather conditions in past years. The results will help you decide how hot, cold, wet, or windy it might be!

Date:

Astronomy

Jan. 23, 2014 Rise Set
Actual Time 8:18 AM CET 6:24 PM CET
Civil Twilight 7:50 AM CET 6:52 PM CET
Nautical Twilight 7:18 AM CET 7:24 PM CET
Astronomical Twilight 6:47 AM CET 7:55 PM CET
Moon 12:31 AM CET (1/23) 11:55 AM CET (1/23)
Length of Visible Light 11h 02m
Length of Day
10h 06m
Waning Gibbous, 58% of the Moon is Illuminated
Jan 23
Waning Gibbous
Jan 24
Last Quarter
Jan 30
New
Feb 6
First Quarter
Feb 15
Full

Hourly Weather History & Observations

Time (CET) Temp. Dew Point Humidity Pressure Visibility Wind Dir Wind Speed Gust Speed Precip Events Conditions
12:00 AM 59 °F 46 °F 51% 30.00 in - West 6.9 mph - -  
1:00 AM 57 °F 46 °F 56% 30.00 in - West 4.6 mph - -  
2:00 AM 55 °F 42 °F 51% 29.99 in - North 4.6 mph - -  
3:00 AM 53 °F 44 °F 61% 30.00 in - Calm Calm - -  
4:00 AM 56 °F 40 °F 45% 30.01 in - North 4.6 mph - -  
5:00 AM 54 °F 41 °F 50% 30.01 in - Calm Calm - -  
5:00 AM 53.6 °F 41.0 °F 62% 30.01 in 6.2 mi Calm Calm - N/A   Mostly Cloudy
6:00 AM 54 °F 42 °F 53% 30.03 in - NNW 4.6 mph - -  
6:00 AM 53.6 °F 41.0 °F 62% 30.01 in 6.2 mi NNW 3.5 mph - N/A   Mostly Cloudy
6:30 AM 55.4 °F 41.0 °F 58% 30.01 in 6.2 mi Variable 2.3 mph - N/A   Mostly Cloudy
7:00 AM 54 °F 43 °F 55% 30.05 in 25 mi NNE 2.3 mph - -   Scattered Clouds
7:00 AM 55.4 °F 41.0 °F 58% 30.04 in 6.2 mi Variable 2.3 mph - N/A   Mostly Cloudy
7:30 AM 55.4 °F 42.8 °F 63% 30.04 in 6.2 mi Variable 2.3 mph - N/A   Mostly Cloudy
8:00 AM 56 °F 41 °F 45% 30.07 in - North 4.6 mph - -  
8:00 AM 55.4 °F 41.0 °F 58% 30.06 in 6.2 mi North 3.5 mph - N/A   Mostly Cloudy
8:30 AM 55.4 °F 39.2 °F 54% 30.06 in 6.2 mi NW 4.6 mph - N/A   Mostly Cloudy
9:00 AM 55 °F 39 °F 43% 30.09 in - NW 10.4 mph - -  
9:00 AM 53.6 °F 39.2 °F 58% 30.06 in 6.2 mi NW 9.2 mph - N/A   Mostly Cloudy
9:30 AM 55.4 °F 39.2 °F 54% 30.09 in 6.2 mi NW 11.5 mph - N/A   Mostly Cloudy
10:00 AM 56 °F 39 °F 41% 30.13 in 25 mi NW 11.5 mph - -   Scattered Clouds
10:00 AM 55.4 °F 37.4 °F 51% 30.12 in 6.2 mi NW 11.5 mph - N/A   Scattered Clouds
10:30 AM 57.2 °F 39.2 °F 51% 30.12 in 6.2 mi NW 10.4 mph - N/A   Scattered Clouds
11:00 AM 58 °F 39 °F 37% 30.16 in - NW 6.9 mph - -  
11:00 AM 59.0 °F 39.2 °F 48% 30.15 in 6.2 mi NW 6.9 mph - N/A   Scattered Clouds
11:30 AM 64.4 °F 37.4 °F 37% 30.15 in 6.2 mi Variable 1.2 mph - N/A   Mostly Cloudy
12:00 PM 61 °F 40 °F 33% 30.17 in - ESE 6.9 mph - -  
12:00 PM 60.8 °F 39.2 °F 45% 30.15 in 6.2 mi SE 5.8 mph - N/A   Mostly Cloudy
12:30 PM 62.6 °F 37.4 °F 39% 30.18 in 6.2 mi Variable 1.2 mph - N/A   Mostly Cloudy
1:00 PM 65 °F 36 °F 23% 30.18 in 25 mi NNE 6.9 mph - -   Scattered Clouds
1:00 PM 64.4 °F 35.6 °F 34% 30.15 in 6.2 mi NNE 6.9 mph - N/A   Mostly Cloudy
1:30 PM 62.6 °F 39.2 °F 42% 30.15 in 6.2 mi SSE 8.1 mph - N/A   Mostly Cloudy
2:00 PM 63 °F 42 °F 34% 30.17 in - SE 11.5 mph - -  
2:00 PM 62.6 °F 41.0 °F 45% 30.15 in 6.2 mi SE 11.5 mph - N/A   Mostly Cloudy
2:30 PM 62.6 °F 41.0 °F 45% 30.15 in 6.2 mi SE 11.5 mph - N/A   Mostly Cloudy
3:00 PM 62 °F 45 °F 43% 30.18 in - SSE 12.7 mph - -  
3:00 PM 62.6 °F 44.6 °F 52% 30.18 in 6.2 mi SSE 11.5 mph - N/A   Scattered Clouds
3:30 PM 60.8 °F 46.4 °F 59% 30.18 in 6.2 mi SE 11.5 mph - N/A   Scattered Clouds
4:00 PM 62 °F 48 °F 49% 30.22 in 25 mi SSE 10.4 mph - -   Scattered Clouds
4:00 PM 60.8 °F 46.4 °F 59% 30.21 in 6.2 mi SSE 9.2 mph - N/A   Scattered Clouds
4:30 PM 60.8 °F 46.4 °F 59% 30.21 in 6.2 mi SSE 10.4 mph - N/A   Scattered Clouds
5:00 PM 61 °F 47 °F 50% 30.23 in - South 11.5 mph - -  
5:00 PM 59.0 °F 46.4 °F 63% 30.21 in 6.2 mi South 10.4 mph - N/A   Scattered Clouds
5:30 PM 59.0 °F 46.4 °F 63% 30.24 in 6.2 mi South 6.9 mph - N/A   Scattered Clouds
6:00 PM 59 °F 46 °F 51% 30.25 in - SSW 6.9 mph - -  
6:00 PM 57.2 °F 44.6 °F 63% 30.24 in 6.2 mi SSW 6.9 mph - N/A   Scattered Clouds
6:30 PM 57.2 °F 46.4 °F 67% 30.24 in 6.2 mi SSW 4.6 mph - N/A   Partly Cloudy
7:00 PM 56 °F 47 °F 64% 30.28 in 25 mi SSW 2.3 mph - -   Scattered Clouds
7:00 PM 55.4 °F 48.2 °F 77% 30.27 in 6.2 mi Variable 2.3 mph - N/A   Partly Cloudy
7:30 PM 55.4 °F 48.2 °F 77% 30.27 in 6.2 mi SSW 3.5 mph - N/A   Partly Cloudy
8:00 PM 55 °F 48 °F 70% 30.30 in - North 1.2 mph - -  
8:00 PM 55.4 °F 48.2 °F 77% 30.30 in 6.2 mi Calm Calm - N/A   Partly Cloudy
8:30 PM 55.4 °F 48.2 °F 77% 30.30 in 6.2 mi Variable 1.2 mph - N/A   Mostly Cloudy
9:00 PM 54 °F 47 °F 71% 30.32 in - Calm Calm - -  
9:00 PM 53.6 °F 46.4 °F 77% 30.30 in 6.2 mi Calm Calm - N/A   Mostly Cloudy
9:30 PM 53.6 °F 48.2 °F 82% 30.30 in 6.2 mi Variable 1.2 mph - N/A   Mostly Cloudy
10:00 PM 52 °F 47 °F 76% 30.33 in 25 mi Calm Calm - -   Partly Cloudy
10:00 PM 51.8 °F 46.4 °F 82% 30.33 in 6.2 mi Variable 1.2 mph - N/A   Scattered Clouds
10:30 PM 50.0 °F 46.4 °F 87% 30.33 in 6.2 mi Variable 2.3 mph - N/A   Partly Cloudy
11:00 PM 51 °F 46 °F 76% 30.35 in - NW 2.3 mph - -